Hourly Weather Barra de Santo Antonio

Today, 23 September, Wednesday

Time Temperature Precipitation Wind Pressure Humidity
00:00 +24°C° 0 mm 3 mps 760 mmHg 89%
01:00 +24°C° 0 mm 3 mps 760 mmHg 89%
02:00 +24°C° 0 mm 3 mps 760 mmHg 89%
03:00 +24°C° 0 mm 3 mps 760 mmHg 89%
04:00 +24°C° 0 mm 3 mps 760 mmHg 89%
05:00 +24°C° 0.1 mm 3 mps 760 mmHg 88%
06:00 +25°C° 0.1 mm 4 mps 760 mmHg 88%
07:00 +25°C° 0.1 mm 4 mps 760 mmHg 87%
08:00 +26°C° 0.1 mm 4 mps 761 mmHg 79%
09:00 +28°C° 0.1 mm 4 mps 761 mmHg 71%
10:00 +29°C° 0.1 mm 4 mps 762 mmHg 63%
11:00 +29°C° 0 mm 4 mps 762 mmHg 62%
12:00 +29°C° 0 mm 4 mps 761 mmHg 61%
13:00 +30°C° 0 mm 4 mps 761 mmHg 61%
14:00 +29°C° 0 mm 5 mps 760 mmHg 63%
15:00 +29°C° 0 mm 5 mps 760 mmHg 65%
16:00 +29°C° 0 mm 5 mps 760 mmHg 67%
17:00 +28°C° 0.1 mm 4 mps 760 mmHg 72%
18:00 +26°C° 0.1 mm 4 mps 760 mmHg 77%
19:00 +25°C° 0.1 mm 4 mps 761 mmHg 82%
20:00 +25°C° 0 mm 4 mps 761 mmHg 83%
21:00 +25°C° 0 mm 4 mps 761 mmHg 83%
22:00 +25°C° 0 mm 3 mps 761 mmHg 83%
23:00 +24°C° 0 mm 3 mps 761 mmHg 84%

Tomorrow, 24 September, Thursday

Time Temperature Precipitation Wind Pressure Humidity
00:00 +24°C° 0 mm 3 mps 761 mmHg 86%
01:00 +24°C° 0 mm 3 mps 761 mmHg 87%
02:00 +24°C° 0.2 mm 3 mps 760 mmHg 87%
03:00 +24°C° 0.2 mm 3 mps 760 mmHg 88%
04:00 +24°C° 0.2 mm 3 mps 760 mmHg 89%
05:00 +24°C° 0.2 mm 3 mps 760 mmHg 88%
06:00 +24°C° 0.2 mm 3 mps 760 mmHg 87%
07:00 +24°C° 0.2 mm 3 mps 760 mmHg 86%
08:00 +26°C° 0 mm 4 mps 761 mmHg 77%
09:00 +27°C° 0 mm 4 mps 761 mmHg 69%
10:00 +29°C° 0 mm 4 mps 761 mmHg 60%
11:00 +29°C° 0 mm 4 mps 761 mmHg 58%
12:00 +30°C° 0 mm 4 mps 760 mmHg 57%
13:00 +30°C° 0 mm 4 mps 760 mmHg 55%
14:00 +30°C° 0 mm 4 mps 759 mmHg 59%
15:00 +29°C° 0 mm 5 mps 759 mmHg 63%
16:00 +29°C° 0 mm 5 mps 758 mmHg 67%
17:00 +27°C° 0.1 mm 5 mps 759 mmHg 74%
18:00 +26°C° 0.1 mm 5 mps 759 mmHg 81%
19:00 +25°C° 0.1 mm 4 mps 759 mmHg 87%
20:00 +25°C° 0.3 mm 4 mps 760 mmHg 88%
21:00 +25°C° 0.3 mm 4 mps 760 mmHg 89%
22:00 +23°C° 0.3 mm 4 mps 760 mmHg 89%
23:00 +23°C° 0.4 mm 4 mps 760 mmHg 89%

Day after tomorrow, 25 September, Friday

Time Temperature Precipitation Wind Pressure Humidity
00:00 +23°C° 0.4 mm 4 mps 760 mmHg 90%
01:00 +23°C° 0.4 mm 4 mps 760 mmHg 90%
02:00 +23°C° 1.2 mm 4 mps 760 mmHg 90%
03:00 +23°C° 1.2 mm 4 mps 759 mmHg 90%
04:00 +23°C° 1.2 mm 4 mps 759 mmHg 90%
05:00 +23°C° 0.9 mm 4 mps 759 mmHg 89%
06:00 +23°C° 0.9 mm 4 mps 760 mmHg 89%
07:00 +23°C° 0.9 mm 4 mps 760 mmHg 88%
08:00 +25°C° 0.5 mm 4 mps 760 mmHg 85%
09:00 +26°C° 0.5 mm 4 mps 760 mmHg 82%
10:00 +27°C° 0.5 mm 5 mps 761 mmHg 79%
11:00 +27°C° 0.4 mm 5 mps 760 mmHg 77%
12:00 +28°C° 0.4 mm 5 mps 760 mmHg 74%
13:00 +28°C° 0.4 mm 5 mps 760 mmHg 72%
14:00 +28°C° 0.1 mm 4 mps 759 mmHg 72%
15:00 +28°C° 0.1 mm 4 mps 759 mmHg 72%
16:00 +28°C° 0.1 mm 4 mps 758 mmHg 72%
17:00 +27°C° 0 mm 4 mps 759 mmHg 77%
18:00 +26°C° 0 mm 3 mps 759 mmHg 81%
19:00 +25°C° 0 mm 3 mps 759 mmHg 86%
20:00 +24°C° 0 mm 3 mps 760 mmHg 86%
21:00 +24°C° 0 mm 3 mps 760 mmHg 87%
22:00 +24°C° 0 mm 3 mps 760 mmHg 88%
23:00 +24°C° 0 mm 3 mps 760 mmHg 88%

26 September, Saturday

Time Temperature Precipitation Wind Pressure Humidity
00:00 +23°C° 0 mm 2 mps 760 mmHg 88%
01:00 +23°C° 0 mm 2 mps 759 mmHg 89%
02:00 +23°C° 0.2 mm 2 mps 759 mmHg 89%
03:00 +23°C° 0.2 mm 2 mps 759 mmHg 90%
04:00 +23°C° 0.2 mm 2 mps 758 mmHg 90%
05:00 +23°C° 0.2 mm 2 mps 759 mmHg 90%
06:00 +24°C° 0.2 mm 2 mps 759 mmHg 89%
07:00 +24°C° 0.2 mm 3 mps 759 mmHg 88%
08:00 +25°C° 0.1 mm 3 mps 759 mmHg 82%
09:00 +27°C° 0.1 mm 3 mps 760 mmHg 76%
10:00 +28°C° 0.1 mm 4 mps 760 mmHg 69%
11:00 +29°C° 0 mm 4 mps 759 mmHg 65%
12:00 +30°C° 0 mm 4 mps 759 mmHg 61%
13:00 +30°C° 0 mm 4 mps 758 mmHg 57%
14:00 +30°C° 0 mm 4 mps 758 mmHg 58%
15:00 +30°C° 0 mm 4 mps 758 mmHg 59%
16:00 +29°C° 0 mm 4 mps 757 mmHg 60%
17:00 +28°C° 0 mm 4 mps 758 mmHg 68%
18:00 +26°C° 0 mm 4 mps 758 mmHg 76%
19:00 +25°C° 0 mm 3 mps 758 mmHg 84%
20:00 +25°C° 0 mm 3 mps 758 mmHg 86%
21:00 +25°C° 0 mm 3 mps 759 mmHg 88%
22:00 +24°C° 0 mm 3 mps 759 mmHg 90%
23:00 +24°C° 0.1 mm 3 mps 759 mmHg 90%

27 September, Sunday

Time Temperature Precipitation Wind Pressure Humidity
00:00 +24°C° 0.1 mm 3 mps 758 mmHg 90%
01:00 +24°C° 0.1 mm 3 mps 758 mmHg 91%
02:00 +24°C° 0.1 mm 3 mps 758 mmHg 91%
03:00 +24°C° 0.1 mm 3 mps 757 mmHg 92%
04:00 +24°C° 0.1 mm 3 mps 757 mmHg 92%
05:00 +25°C° 0.3 mm 3 mps 757 mmHg 92%
06:00 +25°C° 0.3 mm 4 mps 757 mmHg 91%
07:00 +25°C° 0.3 mm 4 mps 758 mmHg 90%
08:00 +26°C° 0.2 mm 4 mps 758 mmHg 86%
09:00 +28°C° 0.2 mm 4 mps 758 mmHg 81%
10:00 +29°C° 0.2 mm 4 mps 759 mmHg 76%
11:00 +29°C° 0 mm 4 mps 758 mmHg 72%
12:00 +30°C° 0 mm 4 mps 758 mmHg 68%
13:00 +32°C° 0 mm 4 mps 758 mmHg 64%
14:00 +30°C° 0 mm 4 mps 757 mmHg 66%
15:00 +30°C° 0 mm 4 mps 757 mmHg 68%
16:00 +29°C° 0 mm 4 mps 757 mmHg 70%
17:00 +28°C° 0 mm 4 mps 757 mmHg 76%
18:00 +27°C° 0 mm 4 mps 757 mmHg 82%
19:00 +26°C° 0 mm 4 mps 757 mmHg 88%
20:00 +26°C° 0 mm 4 mps 758 mmHg 89%
21:00 +25°C° 0 mm 3 mps 758 mmHg 90%
22:00 +25°C° 0 mm 3 mps 758 mmHg 91%
23:00 +25°C° 0.1 mm 3 mps 758 mmHg 91%

28 September, Monday

Time Temperature Precipitation Wind Pressure Humidity
00:00 +25°C° 0.1 mm 3 mps 758 mmHg 91%
01:00 +25°C° 0.1 mm 3 mps 757 mmHg 91%
02:00 +25°C° 0.1 mm 3 mps 757 mmHg 91%
03:00 +25°C° 0.1 mm 3 mps 757 mmHg 91%
04:00 +25°C° 0.1 mm 2 mps 757 mmHg 91%
05:00 +25°C° 0.1 mm 3 mps 757 mmHg 90%
06:00 +25°C° 0.1 mm 3 mps 757 mmHg 90%
07:00 +26°C° 0.1 mm 3 mps 757 mmHg 89%
08:00 +27°C° 0.1 mm 3 mps 758 mmHg 83%
09:00 +28°C° 0.1 mm 4 mps 758 mmHg 77%
10:00 +30°C° 0.1 mm 5 mps 758 mmHg 70%
11:00 +30°C° 0.1 mm 5 mps 758 mmHg 68%
12:00 +32°C° 0.1 mm 5 mps 757 mmHg 66%
13:00 +32°C° 0.1 mm 5 mps 757 mmHg 64%
14:00 +32°C° 0 mm 5 mps 757 mmHg 65%
15:00 +30°C° 0 mm 5 mps 756 mmHg 67%
16:00 +30°C° 0 mm 5 mps 756 mmHg 68%
17:00 +28°C° 0 mm 4 mps 756 mmHg 74%
18:00 +27°C° 0 mm 4 mps 756 mmHg 80%
19:00 +26°C° 0 mm 4 mps 757 mmHg 86%
20:00 +26°C° 0.1 mm 4 mps 757 mmHg 88%
21:00 +26°C° 0.1 mm 4 mps 758 mmHg 89%
22:00 +25°C° 0.1 mm 4 mps 758 mmHg 90%
23:00 +25°C° 0.1 mm 4 mps 758 mmHg 90%
Show more